Weather History for KHNB - January, 2013

Change the Weather History Date:

Monday, January 28, 2013

  Actual Average Record
Temperature  
Mean Temperature 50 °F -  
Max Temperature 55 °F 39 °F 66 °F (2002)
Min Temperature 44 °F 24 °F 1 °F (2014)
Degree Days  
Heating Degree Days 16    
Moisture  
Dew Point 46 °F    
Average Humidity 85    
Maximum Humidity 94    
Minimum Humidity 71    
Precipitation  
Precipitation 0.27 in - - ()
Sea Level Pressure  
Sea Level Pressure 30.09 in    
Wind  
Wind Speed 13 mph (South)    
Max Wind Speed 21 mph    
Max Gust Speed 30 mph    
Visibility 7 miles    
Events      
Averages and records for this station are not official NWS values.
T = Trace of Precipitation, MM = Missing Value Source: NWS Daily Summary

Daily Weather History Graph

Daily Weather History Graph

Search for Another Location

Airport or City:

Trip Planner

Search our weather history database for the weather conditions in past years. The results will help you decide how hot, cold, wet, or windy it might be!

Date:

Astronomy

Jan. 28, 2013 Rise Set
Actual Time 7:55 AM EST 6:06 PM EST
Civil Twilight 7:27 AM EST 6:34 PM EST
Nautical Twilight 6:55 AM EST 7:06 PM EST
Astronomical Twilight 6:24 AM EST 7:37 PM EST
Moon 7:58 PM EST (1/28) 8:23 AM EST (1/28)
Length of Visible Light 11h 06m
Length of Day
10h 10m
Full, 98% of the Moon is Illuminated
Jan 28
Full
Feb 3
Last Quarter
Feb 10
New
Feb 17
First Quarter
Feb 25
Full

Hourly Weather History & Observations

Time (EST) Temp. Windchill Dew Point Humidity Pressure Visibility Wind Dir Wind Speed Gust Speed Precip Events Conditions
12:35 AM 44.6 °F 38.1 °F 41.0 °F 87% 30.13 in 10.0 mi South 13.8 mph - N/A   Partly Cloudy
12:55 AM 46.4 °F 40.1 °F 41.0 °F 81% 30.12 in 10.0 mi South 15.0 mph 20.7 mph N/A   Scattered Clouds
1:35 AM 46.4 °F 40.7 °F 41.0 °F 81% 30.12 in 10.0 mi South 12.7 mph - N/A   Clear
1:55 AM 46.4 °F 41.1 °F 41.0 °F 81% 30.13 in 10.0 mi South 11.5 mph - N/A   Clear
2:15 AM 46.4 °F 41.9 °F 39.2 °F 76% 30.13 in 10.0 mi South 9.2 mph - N/A   Scattered Clouds
2:35 AM 46.4 °F 41.5 °F 41.0 °F 81% 30.14 in 10.0 mi South 10.4 mph - N/A   Overcast
2:55 AM 44.6 °F 39.2 °F 39.2 °F 81% 30.13 in 10.0 mi South 10.4 mph - N/A   Overcast
3:15 AM 46.4 °F 40.7 °F 39.2 °F 76% 30.14 in 10.0 mi South 12.7 mph - N/A   Mostly Cloudy
3:35 AM 46.4 °F 41.5 °F 41.0 °F 81% 30.13 in 10.0 mi South 10.4 mph - 0.01 in   Overcast
3:55 AM 44.6 °F 39.2 °F 39.2 °F 81% 30.13 in 10.0 mi South 10.4 mph - 0.01 in   Mostly Cloudy
4:15 AM 46.4 °F 40.7 °F 39.2 °F 76% 30.12 in 10.0 mi South 12.7 mph - N/A   Mostly Cloudy
4:35 AM 46.4 °F 40.4 °F 39.2 °F 76% 30.11 in 10.0 mi South 13.8 mph - N/A   Mostly Cloudy
4:55 AM 46.4 °F 40.4 °F 39.2 °F 76% 30.11 in 10.0 mi South 13.8 mph 20.7 mph N/A   Overcast
5:15 AM 46.4 °F 40.4 °F 39.2 °F 76% 30.11 in 10.0 mi South 13.8 mph - N/A   Mostly Cloudy
5:35 AM 48.2 °F - 39.2 °F 71% 30.09 in 10.0 mi South 18.4 mph 24.2 mph N/A   Mostly Cloudy
5:55 AM 48.2 °F - 39.2 °F 71% 30.09 in 10.0 mi South 15.0 mph - N/A   Scattered Clouds
6:15 AM 48.2 °F - 39.2 °F 71% 30.08 in 10.0 mi South 19.6 mph 24.2 mph N/A   Scattered Clouds
6:35 AM 48.2 °F - 39.2 °F 71% 30.08 in 10.0 mi South 17.3 mph 23.0 mph N/A   Scattered Clouds
6:55 AM 48.2 °F - 39.2 °F 71% 30.09 in 10.0 mi South 16.1 mph - N/A   Scattered Clouds
7:15 AM 48.2 °F - 39.2 °F 71% 30.09 in 10.0 mi South 13.8 mph 19.6 mph N/A   Mostly Cloudy
7:35 AM 48.2 °F - 41.0 °F 76% 30.09 in 10.0 mi South 13.8 mph - N/A   Overcast
7:55 AM 50.0 °F - 41.0 °F 71% 30.09 in 10.0 mi South 13.8 mph 19.6 mph N/A   Overcast
8:15 AM 50.0 °F - 42.8 °F 76% 30.10 in 5.0 mi South 20.7 mph 29.9 mph 0.09 in   Overcast
8:35 AM 48.2 °F - 42.8 °F 82% 30.10 in 5.0 mi South 19.6 mph 25.3 mph 0.16 in   Mostly Cloudy
8:55 AM 48.2 °F - 44.6 °F 87% 30.10 in 7.0 mi South 15.0 mph 23.0 mph 0.20 in   Overcast
9:35 AM 48.2 °F - 44.6 °F 87% 30.11 in 10.0 mi SSW 15.0 mph 23.0 mph N/A   Overcast
9:55 AM 48.2 °F - 44.6 °F 87% 30.10 in 10.0 mi South 17.3 mph 24.2 mph N/A   Overcast
10:15 AM 48.2 °F - 44.6 °F 87% 30.10 in 10.0 mi South 17.3 mph 20.7 mph N/A   Overcast
10:35 AM 50.0 °F - 46.4 °F 87% 30.10 in 10.0 mi South 19.6 mph 26.5 mph N/A   Overcast
10:55 AM 50.0 °F - 46.4 °F 87% 30.11 in 9.0 mi SSW 18.4 mph 26.5 mph N/A   Overcast
11:15 AM 51.8 °F - 46.4 °F 82% 30.11 in 8.0 mi SSW 16.1 mph 21.9 mph N/A   Overcast
11:35 AM 51.8 °F - 46.4 °F 82% 30.12 in 8.0 mi South 15.0 mph 21.9 mph N/A   Overcast
11:55 AM 51.8 °F - 46.4 °F 82% 30.11 in 8.0 mi SSW 16.1 mph 21.9 mph N/A   Overcast
12:16 PM 51.8 °F - 48.2 °F 88% 30.10 in 8.0 mi SSW 15.0 mph 21.9 mph N/A   Overcast
12:35 PM 51.8 °F - 48.2 °F 88% 30.09 in 8.0 mi SSW 16.1 mph 20.7 mph N/A   Overcast
12:55 PM 53.6 °F - 48.2 °F 82% 30.09 in 7.0 mi SSW 12.7 mph - N/A   Overcast
1:35 PM 53.6 °F - 48.2 °F 82% 30.07 in 5.0 mi South 13.8 mph 17.3 mph 0.02 in   Overcast
1:55 PM 53.6 °F - 50.0 °F 88% 30.06 in 6.0 mi SSW 12.7 mph - 0.02 in   Overcast
2:15 PM 53.6 °F - 50.0 °F 88% 30.06 in 5.0 mi South 10.4 mph - N/A   Overcast
2:35 PM 53.6 °F - 50.0 °F 88% 30.05 in 5.0 mi South 11.5 mph - 0.03 in   Overcast
2:55 PM 53.6 °F - 51.8 °F 94% 30.05 in 4.0 mi South 11.5 mph - 0.03 in   Overcast
3:15 PM 53.6 °F - 51.8 °F 94% 30.05 in 4.0 mi South 11.5 mph - 0.01 in   Overcast
3:35 PM 53.6 °F - 51.8 °F 94% 30.05 in 3.0 mi South 11.5 mph - 0.01 in   Overcast
3:55 PM 53.6 °F - 51.8 °F 94% 30.05 in 3.0 mi South 9.2 mph - 0.01 in   Overcast
4:15 PM 53.6 °F - 51.8 °F 94% 30.06 in 5.0 mi SSW 10.4 mph - N/A   Overcast
4:35 PM 53.6 °F - 51.8 °F 94% 30.06 in 5.0 mi South 11.5 mph - N/A   Overcast
4:55 PM 53.6 °F - 51.8 °F 94% 30.05 in 4.0 mi South 11.5 mph - N/A   Overcast
5:15 PM 53.6 °F - 51.8 °F 94% 30.06 in 4.0 mi South 11.5 mph - N/A   Overcast
5:35 PM 53.6 °F - 51.8 °F 94% 30.06 in 3.0 mi South 9.2 mph - N/A   Overcast
5:55 PM 53.6 °F - 51.8 °F 94% 30.06 in 3.0 mi South 8.1 mph - N/A   Overcast
6:15 PM 53.6 °F - 51.8 °F 94% 30.07 in 3.0 mi South 8.1 mph - N/A   Overcast
6:35 PM 53.6 °F - 51.8 °F 94% 30.07 in 3.0 mi South 5.8 mph - N/A   Overcast
6:55 PM 53.6 °F - 51.8 °F 94% 30.07 in 3.0 mi SSE 5.8 mph - N/A   Overcast
7:15 PM 53.6 °F - 51.8 °F 94% 30.07 in 3.0 mi SSE 5.8 mph - N/A   Overcast
7:35 PM 53.6 °F - 51.8 °F 94% 30.07 in 4.0 mi SSE 5.8 mph - N/A   Overcast
7:55 PM 53.6 °F - 51.8 °F 94% 30.07 in 4.0 mi South 6.9 mph - N/A   Overcast
8:15 PM 53.6 °F - 51.8 °F 94% 30.07 in 5.0 mi South 6.9 mph - N/A   Overcast
8:35 PM 53.6 °F - 51.8 °F 94% 30.06 in 5.0 mi SSE 5.8 mph - N/A   Overcast
8:55 PM 55.4 °F - 51.8 °F 88% 30.06 in 5.0 mi SSE 5.8 mph - N/A   Overcast
9:15 PM 55.4 °F - 51.8 °F 88% 30.07 in 6.0 mi South 5.8 mph - N/A   Overcast
9:35 PM 55.4 °F - 51.8 °F 88% 30.06 in 7.0 mi SSE 4.6 mph - N/A   Overcast
9:55 PM 55.4 °F - 51.8 °F 88% 30.06 in 8.0 mi SSE 5.8 mph - N/A   Mostly Cloudy
10:15 PM 55.4 °F - 51.8 °F 88% 30.06 in 8.0 mi SSE 8.1 mph - N/A   Overcast
10:35 PM 55.4 °F - 51.8 °F 88% 30.06 in 10.0 mi South 6.9 mph - N/A   Overcast
10:55 PM 55.4 °F - 51.8 °F 88% 30.05 in 10.0 mi South 8.1 mph - N/A   Overcast
11:15 PM 55.4 °F - 51.8 °F 88% 30.05 in 10.0 mi South 9.2 mph - N/A   Overcast
11:35 PM 55.4 °F - 51.8 °F 88% 30.05 in 10.0 mi South 9.2 mph - N/A   Overcast